682  
ASUS43 KIWX 172210  
RWRIWX  
 
KIWX WEATHER ROUNDUP  
NATIONAL WEATHER SERVICE NORTHERN INDIANA  
500 PM EST WED JAN 17 2018  
 
NOTE: "FAIR" INDICATES FEW OR NO CLOUDS BELOW 12,000 FEET WITH NO  
SIGNIFICANT WEATHER AND/OR S TO VISIBILITY
.  
 
* THESE STATIONS ARE NOT UNDER NWS QUALITY CONTROL. THEY ALSO MAY NOT  
REPORT WEATHER SUCH AS PRECIPITATION OR FOG.
 
 
INZ001>027-172300-  
NORTHERN INDIANA  
 
CITY SKY/WX TMP DP RH WIND PRES REMARKS
 
GARY* PTCLDY 19 9 63 SW14 30.43F WCI 6  
VALPARAISO FAIR 17 9 70 SW15 30.42F WCI 2  
MICHIGAN CITY* FAIR 21 9 58 SW14 30.42S WCI 8  
LAPORTE* FAIR 16 9 74 SW9 30.41F WCI 4  
KNOX* FAIR 18 10 73 SW14 30.44F WCI 4  
SOUTH BEND FAIR 16 8 71 SW12 30.40F WCI 3  
ELKHART* FAIR 19 9 63 SW12 30.39F WCI 7  
GOSHEN FAIR 19 9 65 SW17G25 30.40F WCI 4  
MONTICELLO* FAIR 14 8 77 SW9 30.48F WCI 2  
LOGANSPORT* FAIR 14 9 79 W9 30.48F WCI 2  
ROCHESTER* FAIR 18 10 73 SW8 30.46S WCI 7  
WARSAW* FAIR 18 9 68 SW8 30.42F WCI 7  
AUBURN* FAIR 21 10 63 SW8 30.41R WCI 12  
FORT WAYNE FAIR 19 10 68 W15 30.44F WCI 5  
HUNTINGTON* FAIR 16 8 70 SW10G16 30.45S WCI 3  
PERU/GRISSOM MOCLDY 16 11 80 SW13 30.46F WCI 2  
MARION* FAIR 13 9 81 CALM 30.48F  
 

 
INZ028>050-172300-  
CENTRAL INDIANA  
 
CITY SKY/WX TMP DP RH WIND PRES REMARKS
 
LAFAYETTE FAIR 14 8 77 SW7 30.51F WCI 4  
MUNCIE* FAIR 19 9 65 W9 30.47S WCI 8  
INDIANAPOLIS FAIR 18 9 68 W12 30.52R WCI 5  
 

 
MIZ043>046-050>051-056>058-064>065-071>073-077>080-172300-  
SOUTHWEST LOWER MICHIGAN  
 
CITY SKY/WX TMP DP RH WIND PRES REMARKS
 
BATTLE CREEK FAIR 23 13 65 W21 30.31F WCI 8  
BENTON HARBOR FAIR 24 13 62 SW15G26 30.36F WCI 11  
COLDWATER* FAIR 21 12 68 SW9 30.34F WCI 10  
HILLSDALE* FAIR 21 12 68 W12 30.31S WCI 9  
HOLLAND FAIR 26 15 63 W23G31 30.31F WCI 11  
GRAND RAPIDS MOCLDY 25 16 68 SW22 30.27F WCI 10  
KALAMAZOO FAIR 23 13 65 SW13 30.34S WCI 11  
STURGIS* FAIR 20 11 66 SW13 30.36S WCI 8  
THREE RIVERS* FAIR 24 12 58 W10G17 30.36F WCI 14  
 

 
OHZ001>008-015>018-024>025-172300-  
NORTHWEST OHIO  
 
CITY SKY/WX TMP DP RH WIND PRES REMARKS
 
WAUSEON* FAIR 21 10 63 SW14 30.36F WCI 8  
DEFIANCE FAIR 20 9 62 SW12G18 30.40F WCI 8  
FINDLAY FAIR 18 8 65 SW13 30.40F WCI 5  
TOLEDO EXPRESS FAIR 19 12 74 SW10 30.37F WCI 7  
TOLEDO METCALF FAIR 17 10 74 SW14 30.39F HAZE WCI 3  
LIMA FAIR 16 10 77 SW12 30.42F WCI 3  
 

 
AND FOR LAKE MICHIGAN COASTAL AND OPEN LAKE BUOY OBSERVATIONS  
 
STATION/POSITION TEMP WIND PRES VSBY WAVE
 
AIR SEA DIR/SP/G HT/PER  
(F) (DEG/KT/KT) (MB) (MI) (FT/S)  
CALUMET HARBOR 20 210/ 12/ 17 1028.8F  
MICHIGAN CITY 21 210/ 15/ 16 N/A  
BURNS HARBOR 19 210/ 14/ 17 1030.5F  
SAINT JOSEPH 24 230/ 19/ 24 1027.8  
 

 

 
 
 
CLICK HERE TO GO TO PREVIOUS BULLETINS.

The Nexlab IN Page
The Nexlab OH Page
The Nexlab MI Page Main Text Page